Home > Weather > Greenwich Borough > Past weeks

Flag for United Kingdom Past Weather in Greenwich Borough, England, United Kingdom — Yesterday and Last 2 Weeks

Now
70 °F

Scattered clouds.


Feels Like: 70 °F
Forecast: 60 / 71 °F
Wind: 12 mph from Southwest

Location: Biggin Hill Airport

Current Time: Jul 28, 2016 at 1:27:50 PM

Latest Report: Jul 28, 2016 at 12:50 PM


Visibility: N/A

Pressure: 29.95 "Hg

Humidity: 60%

Dew Point: 55 °F

Location of Greenwich BoroughLocation

Past Weather in Greenwich Borough — Graph

°F

Greenwich Borough Temperature Yesterday

Maximum temperature yesterday: 73 °F (at 4:50 PM)
Minimum temperature yesterday: 63 °F (at 7:20 AM)
Average temperature yesterday: 67 °F

High & Low Weather Summary for the Past Weeks

 TemperatureHumidityPressure
High86 °F (Jul 19, 2:20 PM)100% (Jul 18, 7:20 AM)30.33 "Hg (Jul 18, 7:20 AM)
Low52 °F (Jul 14, 6:20 AM)34% (Jul 18, 6:50 PM)29.74 "Hg (Jul 20, 7:50 AM)
Average70 °F68%30.11 "Hg
* Reported Jul 13 12:20 PM — Jul 28 12:20 PM, Greenwich Borough, Weather by CustomWeather, © 2016

Note: Actual official high and low records may vary slightly from our data, if they occured in-between our weather recording intervals... More about our weather records

Advertising

Greenwich Borough Weather History for the Previous 24 Hours

Scroll right to see more
 ConditionsComfort  
Time TempWeatherWind HumidityBarometerVisibility
12:20 PM
Thu, Jul 28
68 °FScattered clouds.12 mph64%29.98 "HgN/A
11:50 AM68 °FScattered clouds.7 mph64%29.98 "HgN/A
11:20 AM68 °FPassing clouds.8 mph60%29.98 "HgN/A
10:50 AM66 °FPassing clouds.7 mph64%29.98 "HgN/A
10:20 AM66 °FPassing clouds.5 mph64%30.01 "HgN/A
9:50 AM66 °FPassing clouds.3 mph60%30.01 "HgN/A
9:20 AM64 °FPassing clouds.3 mph68%29.98 "HgN/A
8:50 AM63 °FPassing clouds.3 mph68%29.98 "HgN/A
8:20 AM61 °FPassing clouds.3 mph72%29.98 "HgN/A
7:50 AM63 °FPassing clouds.3 mph68%29.98 "HgN/A
7:20 AM61 °FSunny.2 mph77%29.98 "Hg10 mi
6:50 AM57 °FPassing clouds.1 mph88%29.98 "HgN/A
6:20 AM57 °FPassing clouds.3 mph82%29.98 "HgN/A
8:50 PM
Wed, Jul 27
66 °FPassing clouds.10 mph88%29.98 "HgN/A
8:20 PM68 °FPassing clouds.9 mph83%29.98 "HgN/A
7:50 PM68 °FPassing clouds.9 mph83%29.98 "HgN/A
7:20 PM70 °FScattered clouds.10 mph78%29.98 "HgN/A
6:50 PM70 °FScattered clouds.10 mph73%29.98 "HgN/A
6:20 PM70 °FScattered clouds.10 mph73%29.98 "HgN/A
5:50 PM72 °FScattered clouds.12 mph73%29.98 "HgN/A
5:20 PM72 °FScattered clouds.9 mph69%29.98 "HgN/A
4:50 PM73 °FScattered clouds.10 mph69%29.98 "HgN/A
4:20 PM72 °FScattered clouds.12 mph73%29.98 "HgN/A
3:50 PM70 °FScattered clouds.10 mph83%29.98 "HgN/A
3:20 PM70 °FScattered clouds.10 mph83%30.01 "HgN/A
2:50 PM66 °FScattered showers. Broken clouds.8 mph94%30.01 "HgN/A
2:20 PM66 °FDrizzle. Broken clouds.9 mph88%30.01 "HgN/A
1:50 PM68 °FDrizzle. Partly sunny.10 mph83%30.01 "HgN/A
1:20 PM68 °FPartly sunny.8 mph78%30.01 "HgN/A
Weather by CustomWeather, © 2016

See weather overviewHow to use our weather pages